Precipitable_Water
1.44 1.37 1.37 1.36 1.42 1.41 1.39 1.38 1.42 1.42 1.44 1.44 1.43 1.42 1.45 1.47 1.46 1.45 1.44 1.41 1.39 1.30 1.20 1.12 1.15 1.20 1.21 1.14 1.03 0.88 0.92 0.98 1.07 1.11 1.20 1.21 1.23 1.21 1.15 1.09 1.08 1.08 1.04 0.99 0.95 0.92 0.88 0.87 0.85 0.86 0.82 0.78 0.78 0.81 0.80 0.78 0.75 0.76 0.78 0.82 0.88 0.87 0.83 0.77 0.72 0.67 0.62 0.56 0.54 0.55 0.53 0.50 0.47 0.49 0.49 0.50 0.48 0.48 0.49 0.50 0.51 0.50 0.51 0.52 0.53
1.42 1.41 1.36 1.35 1.37 1.34 1.34 1.42 1.48 1.49 1.50 1.46 1.46 1.50 1.41 1.45 1.45 1.43 1.43 1.44 1.42 1.39 1.29 1.17 1.11 1.07 1.18 1.18 1.12 1.04 0.94 0.90 1.01 1.08 1.18 1.22 1.24 1.25 1.17 1.10 1.10 1.10 1.10 1.04 1.00 0.94 0.92 0.89 0.89 0.87 0.84 0.81 0.76 0.81 0.80 0.78 0.72 0.74 0.77 0.81 0.83 0.91 0.86 0.81 0.77 0.71 0.66 0.61 0.54 0.50 0.51 0.50 0.50 0.46 0.47 0.47 0.48 0.48 0.48 0.47 0.49 0.49 0.50 0.50 0.52
1.36 1.38 1.39 1.36 1.39 1.39 1.40 1.45 1.44 1.47 1.48 1.43 1.46 1.49 1.44 1.45 1.46 1.44 1.44 1.47 1.46 1.44 1.36 1.22 1.11 1.16 1.13 1.13 1.15 1.11 0.99 0.91 0.93 1.04 1.12 1.21 1.25 1.28 1.24 1.17 1.11 1.11 1.10 1.07 1.04 1.00 0.97 0.93 0.90 0.89 0.89 0.86 0.83 0.80 0.77 0.78 0.73 0.73 0.77 0.77 0.81 0.84 0.88 0.82 0.81 0.75 0.69 0.63 0.59 0.53 0.50 0.50 0.49 0.50 0.46 0.47 0.47 0.47 0.47 0.46 0.45 0.47 0.49 0.50 0.50
1.40 1.35 1.29 1.27 1.30 1.37 1.42 1.42 1.42 1.47 1.43 1.38 1.39 1.46 1.43 1.46 1.53 1.50 1.47 1.51 1.47 1.46 1.40 1.24 1.10 1.13 1.13 1.11 1.07 1.09 1.02 0.92 0.92 0.96 1.04 1.16 1.24 1.28 1.28 1.24 1.13 1.10 1.09 1.07 1.05 1.03 1.01 0.98 0.93 0.92 0.93 0.91 0.87 0.85 0.81 0.79 0.76 0.73 0.77 0.76 0.76 0.80 0.84 0.89 0.82 0.78 0.73 0.69 0.63 0.58 0.54 0.52 0.51 0.47 0.47 0.46 0.46 0.48 0.47 0.46 0.46 0.46 0.48 0.49 0.51
1.23 1.21 1.24 1.27 1.29 1.33 1.33 1.34 1.36 1.44 1.44 1.43 1.37 1.35 1.40 1.43 1.41 1.43 1.46 1.47 1.45 1.39 1.39 1.37 1.18 1.09 1.03 1.07 1.05 1.06 1.07 1.00 0.91 0.90 0.99 1.12 1.20 1.23 1.26 1.25 1.17 1.11 1.10 1.07 1.07 1.05 1.04 1.02 0.98 0.95 0.94 0.93 0.91 0.88 0.86 0.83 0.80 0.75 0.73 0.78 0.77 0.77 0.81 0.85 0.86 0.80 0.78 0.73 0.67 0.61 0.58 0.54 0.50 0.49 0.47 0.47 0.46 0.46 0.47 0.46 0.46 0.47 0.47 0.48 0.48
1.21 1.27 1.26 1.23 1.25 1.24 1.26 1.30 1.34 1.37 1.36 1.35 1.31 1.36 1.36 1.38 1.35 1.39 1.38 1.36 1.34 1.34 1.34 1.32 1.29 1.27 1.12 1.05 1.07 1.03 1.08 1.04 0.99 0.85 0.93 1.05 1.22 1.23 1.26 1.26 1.24 1.18 1.14 1.12 1.10 1.09 1.07 1.05 1.02 0.98 0.95 0.95 0.93 0.91 0.89 0.86 0.82 0.79 0.73 0.76 0.79 0.75 0.80 0.81 0.87 0.84 0.80 0.77 0.72 0.66 0.61 0.56 0.54 0.50 0.48 0.47 0.47 0.47 0.46 0.48 0.46 0.46 0.47 0.46 0.47
1.28 1.32 1.33 1.30 1.26 1.25 1.27 1.37 1.42 1.41 1.31 1.31 1.34 1.33 1.35 1.38 1.42 1.38 1.35 1.32 1.30 1.28 1.25 1.26 1.30 1.30 1.25 1.21 1.09 1.08 1.08 1.02 1.00 0.93 0.91 1.00 1.13 1.23 1.21 1.22 1.22 1.21 1.19 1.16 1.12 1.13 1.11 1.09 1.04 1.00 0.98 0.97 0.95 0.93 0.93 0.91 0.88 0.85 0.79 0.76 0.78 0.78 0.77 0.80 0.85 0.86 0.80 0.79 0.75 0.70 0.66 0.61 0.57 0.53 0.50 0.49 0.48 0.47 0.47 0.47 0.48 0.47 0.45 0.45 0.46
1.25 1.24 1.21 1.25 1.23 1.22 1.30 1.36 1.42 1.47 1.45 1.40 1.40 1.33 1.32 1.33 1.39 1.42 1.29 1.28 1.31 1.27 1.27 1.24 1.25 1.29 1.31 1.37 1.32 1.24 1.18 1.17 1.13 1.07 0.98 0.92 0.93 1.05 1.19 1.22 1.20 1.17 1.19 1.17 1.15 1.10 1.09 1.09 1.07 1.05 1.01 0.99 0.98 0.97 0.96 0.95 0.92 0.91 0.87 0.81 0.77 0.79 0.78 0.79 0.83 0.88 0.86 0.81 0.77 0.75 0.71 0.67 0.61 0.57 0.56 0.52 0.50 0.49 0.49 0.47 0.46 0.46 0.46 0.46 0.46
1.31 1.25 1.30 1.23 1.23 1.25 1.29 1.39 1.46 1.43 1.45 1.43 1.39 1.38 1.37 1.34 1.38 1.42 1.40 1.33 1.31 1.28 1.31 1.31 1.28 1.36 1.33 1.41 1.47 1.34 1.23 1.22 1.16 1.11 1.14 1.04 1.05 1.05 1.04 1.11 1.16 1.16 1.16 1.16 1.16 1.14 1.12 1.08 1.08 1.09 1.07 1.02 1.01 1.00 1.00 0.98 0.96 0.94 0.93 0.87 0.82 0.80 0.78 0.78 0.80 0.84 0.90 0.90 0.84 0.81 0.77 0.74 0.68 0.63 0.59 0.56 0.53 0.51 0.50 0.49 0.46 0.46 0.46 0.46 0.46
1.18 1.22 1.24 1.28 1.33 1.32 1.37 1.36 1.36 1.42 1.38 1.38 1.40 1.43 1.42 1.38 1.33 1.40 1.40 1.34 1.30 1.31 1.29 1.31 1.33 1.35 1.37 1.44 1.51 1.44 1.40 1.30 1.27 1.20 1.12 1.08 1.14 1.18 1.16 1.16 1.14 1.19 1.16 1.15 1.17 1.17 1.16 1.14 1.13 1.12 1.13 1.11 1.07 1.05 1.04 1.03 1.00 0.97 0.96 0.93 0.87 0.82 0.78 0.77 0.79 0.82 0.88 0.94 0.93 0.88 0.84 0.80 0.74 0.69 0.64 0.60 0.57 0.55 0.52 0.50 0.50 0.47 0.47 0.47 0.45
1.11 1.12 1.07 1.12 1.14 1.20 1.20 1.17 1.30 1.32 1.28 1.25 1.32 1.38 1.35 1.35 1.32 1.33 1.37 1.33 1.29 1.32 1.34 1.33 1.30 1.28 1.23 1.31 1.40 1.45 1.43 1.48 1.40 1.27 1.21 1.15 1.14 1.14 1.17 1.21 1.17 1.14 1.24 1.26 1.26 1.26 1.21 1.22 1.18 1.15 1.14 1.16 1.13 1.12 1.12 1.10 1.08 1.03 0.99 0.96 0.93 0.90 0.87 0.85 0.80 0.80 0.83 0.89 0.94 0.93 0.89 0.85 0.78 0.73 0.69 0.65 0.62 0.58 0.55 0.53 0.52 0.51 0.48 0.47 0.45
0.99 0.99 0.98 0.95 0.98 1.05 1.06 1.06 1.18 1.26 1.28 1.21 1.23 1.28 1.31 1.33 1.31 1.29 1.28 1.28 1.32 1.36 1.37 1.31 1.29 1.28 1.23 1.30 1.40 1.40 1.45 1.42 1.38 1.35 1.30 1.24 1.21 1.21 1.19 1.15 1.19 1.16 1.15 1.19 1.28 1.32 1.27 1.24 1.24 1.19 1.20 1.18 1.17 1.16 1.15 1.14 1.12 1.09 1.08 1.02 0.98 0.96 0.95 0.92 0.90 0.87 0.84 0.83 0.88 0.92 0.88 0.85 0.82 0.80 0.76 0.70 0.65 0.61 0.59 0.57 0.54 0.53 0.49 0.46 0.46
0.77 0.75 0.74 0.64 0.67 0.78 0.86 0.95 0.97 1.04 1.10 1.12 1.16 1.20 1.27 1.28 1.27 1.29 1.21 1.17 1.21 1.29 1.31 1.31 1.20 1.16 1.20 1.24 1.30 1.37 1.39 1.42 1.34 1.25 1.28 1.31 1.28 1.21 1.21 1.18 1.12 1.13 1.14 1.16 1.18 1.21 1.31 1.32 1.30 1.29 1.26 1.25 1.21 1.19 1.16 1.15 1.14 1.12 1.11 1.09 1.06 1.03 1.01 0.99 0.97 0.93 0.89 0.82 0.82 0.88 0.89 0.86 0.85 0.85 0.82 0.78 0.72 0.66 0.61 0.60 0.56 0.54 0.52 0.48 0.46
0.63 0.64 0.56 0.73 0.59 0.73 0.67 0.73 0.84 0.90 0.97 1.04 1.05 1.07 1.12 1.09 1.13 1.12 1.19 1.15 1.12 1.22 1.27 1.20 1.09 1.07 1.04 1.03 1.15 1.30 1.31 1.32 1.28 1.28 1.28 1.26 1.28 1.29 1.22 1.16 1.12 1.08 1.11 1.15 1.13 1.15 1.19 1.23 1.27 1.28 1.28 1.28 1.28 1.24 1.21 1.19 1.16 1.15 1.13 1.13 1.12 1.11 1.09 1.08 1.05 1.00 0.96 0.89 0.83 0.82 0.87 0.86 0.85 0.87 0.87 0.85 0.81 0.73 0.65 0.62 0.57 0.55 0.53 0.49 0.47
0.68 0.68 0.76 0.76 0.69 0.74 0.85 0.82 0.81 0.88 0.91 0.95 0.95 0.97 1.07 1.11 1.09 1.01 1.01 1.09 1.09 1.16 1.16 1.17 1.02 1.08 1.10 1.04 0.99 0.98 1.16 1.17 1.25 1.24 1.24 1.23 1.26 1.27 1.33 1.24 1.13 1.11 1.09 1.12 1.17 1.18 1.18 1.20 1.26 1.27 1.28 1.32 1.33 1.32 1.29 1.24 1.22 1.20 1.19 1.16 1.14 1.15 1.15 1.15 1.15 1.11 1.05 1.01 0.95 0.92 0.90 0.87 0.83 0.81 0.84 0.85 0.86 0.83 0.75 0.68 0.62 0.56 0.54 0.51 0.49
0.77 0.78 0.74 0.66 0.75 0.75 0.75 0.77 0.79 0.84 0.90 0.85 0.91 0.94 0.97 1.01 1.08 1.08 1.07 0.99 1.08 1.08 1.16 1.17 1.16 1.12 0.94 0.94 0.98 0.96 0.87 0.96 1.05 1.21 1.32 1.32 1.33 1.32 1.33 1.32 1.28 1.23 1.16 1.10 1.16 1.24 1.28 1.23 1.23 1.26 1.31 1.30 1.31 1.32 1.32 1.29 1.28 1.27 1.24 1.20 1.18 1.16 1.16 1.19 1.23 1.23 1.17 1.11 1.06 1.02 0.99 0.95 0.91 0.86 0.78 0.78 0.84 0.87 0.85 0.79 0.71 0.64 0.59 0.53 0.50
0.73 0.72 0.70 0.71 0.73 0.73 0.70 0.66 0.73 0.78 0.78 0.80 0.80 0.82 0.90 0.96 0.97 0.98 1.03 1.00 0.96 1.02 1.09 1.20 1.21 1.24 1.09 0.97 0.91 0.87 0.90 1.01 1.03 1.11 1.26 1.20 1.25 1.31 1.32 1.33 1.34 1.31 1.23 1.16 1.18 1.28 1.29 1.24 1.22 1.23 1.20 1.24 1.29 1.29 1.34 1.33 1.30 1.28 1.27 1.25 1.21 1.19 1.19 1.17 1.21 1.24 1.25 1.19 1.13 1.09 1.04 1.01 0.98 0.95 0.92 0.83 0.80 0.84 0.89 0.87 0.83 0.75 0.68 0.61 0.54
0.72 0.71 0.69 0.73 0.69 0.72 0.69 0.69 0.63 0.72 0.70 0.68 0.67 0.70 0.73 0.75 0.89 0.96 0.93 0.98 0.98 1.02 1.01 1.16 1.19 1.18 1.18 1.14 1.09 0.93 0.94 1.05 1.00 0.87 1.19 1.21 1.17 1.26 1.31 1.33 1.32 1.36 1.39 1.32 1.21 1.20 1.26 1.29 1.34 1.27 1.26 1.25 1.26 1.32 1.39 1.40 1.37 1.32 1.32 1.32 1.30 1.27 1.24 1.21 1.20 1.23 1.23 1.22 1.20 1.18 1.13 1.09 1.06 1.04 1.02 0.99 0.90 0.85 0.89 0.91 0.91 0.87 0.81 0.71 0.64
0.65 0.65 0.64 0.65 0.65 0.65 0.61 0.52 0.49 0.50 0.48 0.46 0.53 0.56 0.60 0.67 0.69 0.72 0.77 0.88 0.93 0.86 0.91 0.98 1.09 1.12 1.12 1.14 1.13 1.13 1.14 1.03 0.92 0.96 0.84 1.04 1.12 1.15 1.20 1.28 1.30 1.32 1.37 1.37 1.34 1.30 1.24 1.28 1.32 1.33 1.30 1.28 1.24 1.22 1.24 1.30 1.32 1.36 1.39 1.33 1.28 1.28 1.28 1.24 1.20 1.19 1.21 1.21 1.21 1.22 1.19 1.15 1.12 1.10 1.09 1.07 1.04 0.97 0.92 0.93 0.96 0.96 0.93 0.86 0.75
0.63 0.63 0.60 0.58 0.57 0.55 0.55 0.56 0.54 0.51 0.48 0.47 0.43 0.47 0.51 0.50 0.46 0.62 0.62 0.64 0.69 0.71 0.77 0.87 0.84 0.85 0.99 0.97 0.97 1.04 1.08 1.11 1.10 0.99 0.93 0.88 0.97 1.13 1.21 1.21 1.26 1.29 1.32 1.33 1.33 1.33 1.29 1.29 1.32 1.33 1.31 1.31 1.34 1.31 1.27 1.27 1.29 1.32 1.35 1.35 1.34 1.31 1.26 1.22 1.20 1.17 1.17 1.20 1.20 1.20 1.22 1.19 1.17 1.16 1.14 1.13 1.12 1.09 1.04 0.98 0.98 1.02 1.02 1.00 0.95
0.50 0.50 0.50 0.51 0.51 0.53 0.55 0.55 0.54 0.55 0.51 0.47 0.50 0.50 0.47 0.46 0.46 0.46 0.42 0.40 0.57 0.60 0.55 0.54 0.59 0.62 0.72 0.81 0.86 0.84 0.91 0.96 0.97 1.02 0.93 0.84 0.82 0.89 0.97 1.11 1.14 1.22 1.24 1.27 1.29 1.31 1.31 1.35 1.41 1.39 1.36 1.36 1.37 1.39 1.36 1.34 1.32 1.31 1.34 1.31 1.32 1.34 1.33 1.28 1.23 1.19 1.17 1.16 1.16 1.19 1.22 1.25 1.24 1.21 1.19 1.18 1.17 1.16 1.14 1.12 1.06 1.04 1.06 1.08 1.07
0.49 0.52 0.53 0.52 0.52 0.51 0.50 0.52 0.54 0.53 0.54 0.55 0.54 0.49 0.51 0.50 0.50 0.50 0.49 0.45 0.43 0.40 0.41 0.45 0.50 0.53 0.52 0.53 0.51 0.56 0.67 0.71 0.74 0.75 0.79 0.82 0.73 0.78 0.84 0.83 0.81 0.96 1.07 1.09 1.15 1.18 1.18 1.18 1.24 1.32 1.34 1.34 1.33 1.33 1.34 1.34 1.34 1.34 1.36 1.35 1.32 1.33 1.35 1.36 1.35 1.32 1.27 1.24 1.22 1.21 1.23 1.25 1.26 1.27 1.26 1.24 1.23 1.22 1.22 1.22 1.20 1.16 1.13 1.12 1.14
0.46 0.50 0.51 0.53 0.51 0.51 0.51 0.51 0.52 0.55 0.55 0.55 0.54 0.55 0.55 0.55 0.55 0.52 0.51 0.52 0.51 0.50 0.52 0.52 0.45 0.39 0.44 0.46 0.44 0.52 0.51 0.48 0.52 0.55 0.53 0.54 0.63 0.66 0.73 0.76 0.76 0.75 0.87 0.96 1.01 1.04 1.06 1.06 1.08 1.12 1.17 1.22 1.27 1.28 1.27 1.29 1.31 1.37 1.39 1.36 1.33 1.34 1.35 1.36 1.38 1.36 1.34 1.31 1.30 1.30 1.29 1.28 1.30 1.31 1.32 1.33 1.31 1.28 1.28 1.28 1.28 1.27 1.25 1.21 1.19
0.51 0.49 0.50 0.52 0.50 0.48 0.51 0.50 0.51 0.52 0.52 0.56 0.57 0.56 0.55 0.52 0.52 0.51 0.49 0.50 0.49 0.45 0.49 0.51 0.53 0.49 0.45 0.47 0.48 0.49 0.49 0.48 0.49 0.49 0.45 0.39 0.36 0.35 0.38 0.53 0.62 0.71 0.82 0.90 0.90 0.83 0.87 0.97 1.03 1.04 1.11 1.16 1.17 1.18 1.17 1.16 1.19 1.21 1.24 1.27 1.29 1.31 1.32 1.32 1.33 1.34 1.33 1.32 1.29 1.29 1.29 1.31 1.34 1.37 1.40 1.40 1.40 1.37 1.34 1.33 1.33 1.32 1.31 1.30 1.28
0.51 0.50 0.51 0.49 0.50 0.48 0.51 0.48 0.44 0.47 0.48 0.44 0.44 0.51 0.52 0.49 0.48 0.47 0.49 0.48 0.44 0.44 0.41 0.42 0.46 0.48 0.51 0.48 0.51 0.50 0.47 0.46 0.46 0.46 0.45 0.41 0.43 0.39 0.43 0.45 0.38 0.38 0.44 0.54 0.62 0.73 0.76 0.79 0.86 0.95 0.93 1.00 1.11 1.14 1.07 1.13 1.21 1.19 1.16 1.15 1.13 1.13 1.17 1.21 1.24 1.26 1.27 1.27 1.26 1.27 1.30 1.34 1.37 1.38 1.40 1.43 1.45 1.45 1.44 1.43 1.42 1.40 1.37 1.35 1.34
0.55 0.54 0.53 0.54 0.52 0.54 0.54 0.51 0.50 0.45 0.45 0.46 0.47 0.51 0.54 0.53 0.49 0.48 0.46 0.48 0.48 0.44 0.43 0.40 0.41 0.46 0.48 0.46 0.44 0.44 0.46 0.46 0.51 0.49 0.51 0.46 0.41 0.39 0.37 0.38 0.39 0.36 0.45 0.48 0.55 0.50 0.64 0.73 0.77 0.82 0.86 0.85 0.84 0.86 1.05 1.20 1.21 1.21 1.22 1.21 1.19 1.16 1.14 1.14 1.14 1.15 1.18 1.22 1.28 1.30 1.30 1.32 1.35 1.39 1.41 1.43 1.46 1.47 1.47 1.46 1.45 1.43 1.41 1.40 1.38
0.61 0.62 0.60 0.60 0.59 0.55 0.55 0.50 0.47 0.50 0.48 0.47 0.45 0.47 0.49 0.50 0.48 0.46 0.44 0.44 0.43 0.41 0.37 0.37 0.37 0.38 0.43 0.48 0.47 0.39 0.39 0.43 0.46 0.39 0.46 0.44 0.38 0.37 0.35 0.28 0.30 0.39 0.40 0.45 0.50 0.53 0.62 0.67 0.69 0.69 0.81 0.81 0.81 0.79 0.88 0.99 1.04 1.07 1.15 1.16 1.13 1.07 1.03 0.96 0.92 0.96 1.03 1.09 1.13 1.16 1.19 1.24 1.28 1.33 1.38 1.41 1.44 1.48 1.50 1.49 1.48 1.48 1.46 1.44 1.43
0.64 0.65 0.63 0.61 0.62 0.59 0.58 0.54 0.54 0.53 0.52 0.50 0.52 0.50 0.48 0.51 0.48 0.45 0.44 0.47 0.48 0.48 0.46 0.41 0.37 0.35 0.39 0.44 0.43 0.35 0.37 0.43 0.39 0.36 0.40 0.42 0.43 0.43 0.38 0.33 0.26 0.22 0.30 0.35 0.44 0.50 0.61 0.58 0.65 0.72 0.79 0.78 0.80 0.84 0.86 0.88 0.91 0.96 1.01 1.03 1.02 1.03 1.02 0.98 0.93 0.88 0.83 0.83 0.87 0.92 1.00 1.09 1.18 1.26 1.30 1.34 1.37 1.40 1.44 1.48 1.50 1.51 1.51 1.51 1.49
0.63 0.65 0.64 0.62 0.64 0.62 0.59 0.58 0.56 0.55 0.55 0.54 0.53 0.54 0.46 0.52 0.52 0.50 0.51 0.52 0.51 0.47 0.47 0.43 0.43 0.41 0.38 0.40 0.39 0.35 0.33 0.38 0.35 0.35 0.35 0.37 0.38 0.41 0.43 0.38 0.36 0.26 0.22 0.19 0.30 0.40 0.52 0.54 0.55 0.65 0.72 0.74 0.75 0.81 0.78 0.81 0.83 0.84 0.85 0.86 0.88 0.91 0.94 0.94 0.94 0.93 0.92 0.93 0.94 0.94 0.94 0.98 1.04 1.09 1.15 1.22 1.30 1.36 1.38 1.38 1.39 1.42 1.47 1.50 1.52
0.65 0.65 0.65 0.62 0.64 0.64 0.62 0.60 0.58 0.57 0.56 0.56 0.55 0.56 0.51 0.54 0.53 0.50 0.53 0.52 0.48 0.48 0.49 0.48 0.46 0.44 0.41 0.41 0.43 0.35 0.34 0.35 0.37 0.38 0.32 0.33 0.35 0.35 0.35 0.39 0.39 0.33 0.31 0.24 0.22 0.28 0.34 0.47 0.49 0.59 0.64 0.66 0.68 0.66 0.66 0.67 0.73 0.71 0.67 0.66 0.67 0.69 0.72 0.79 0.90 0.99 0.99 0.98 0.98 0.95 0.93 0.95 0.99 1.02 1.05 1.07 1.11 1.18 1.24 1.25 1.25 1.27 1.31 1.33 1.36
0.69 0.68 0.68 0.65 0.65 0.65 0.64 0.62 0.61 0.58 0.57 0.56 0.56 0.58 0.54 0.58 0.54 0.54 0.55 0.49 0.52 0.51 0.51 0.49 0.47 0.47 0.44 0.42 0.44 0.41 0.37 0.38 0.39 0.37 0.35 0.34 0.33 0.32 0.33 0.33 0.33 0.34 0.32 0.32 0.25 0.33 0.36 0.30 0.37 0.46 0.49 0.54 0.61 0.62 0.63 0.62 0.62 0.61 0.60 0.58 0.56 0.54 0.52 0.54 0.62 0.70 0.77 0.81 0.84 0.82 0.77 0.79 0.84 0.88 0.92 0.94 0.97 1.03 1.11 1.14 1.16 1.17 1.19 1.21 1.22
0.77 0.78 0.77 0.73 0.71 0.70 0.68 0.66 0.66 0.64 0.62 0.60 0.59 0.59 0.56 0.58 0.56 0.55 0.56 0.52 0.55 0.54 0.53 0.51 0.50 0.50 0.43 0.44 0.41 0.43 0.38 0.40 0.41 0.37 0.38 0.38 0.37 0.34 0.33 0.32 0.32 0.35 0.35 0.32 0.29 0.27 0.38 0.37 0.37 0.37 0.38 0.36 0.39 0.41 0.44 0.45 0.49 0.52 0.52 0.52 0.53 0.53 0.54 0.58 0.62 0.65 0.66 0.67 0.65 0.62 0.60 0.61 0.62 0.65 0.71 0.78 0.85 0.92 0.96 0.98 0.98 1.00 1.04 1.08 1.12
0.83 0.82 0.84 0.84 0.82 0.80 0.77 0.73 0.72 0.71 0.68 0.65 0.64 0.62 0.60 0.58 0.59 0.57 0.59 0.57 0.57 0.59 0.57 0.55 0.55 0.52 0.49 0.50 0.47 0.46 0.44 0.41 0.42 0.41 0.42 0.41 0.38 0.37 0.37 0.35 0.33 0.34 0.35 0.34 0.30 0.29 0.34 0.40 0.39 0.38 0.39 0.40 0.38 0.42 0.40 0.41 0.42 0.45 0.47 0.49 0.51 0.51 0.52 0.51 0.48 0.49 0.50 0.50 0.51 0.53 0.54 0.57 0.60 0.62 0.64 0.68 0.71 0.76 0.84 0.89 0.90 0.91 0.93 0.96 1.01
0.90 0.89 0.90 0.92 0.89 0.87 0.87 0.85 0.82 0.80 0.77 0.73 0.71 0.68 0.64 0.61 0.62 0.60 0.62 0.60 0.57 0.60 0.62 0.61 0.59 0.58 0.57 0.47 0.51 0.53 0.50 0.46 0.44 0.45 0.46 0.42 0.41 0.39 0.38 0.35 0.31 0.28 0.30 0.28 0.27 0.25 0.23 0.29 0.32 0.36 0.35 0.39 0.35 0.40 0.38 0.39 0.41 0.44 0.43 0.45 0.48 0.49 0.48 0.47 0.47 0.49 0.49 0.48 0.48 0.49 0.53 0.57 0.60 0.65 0.69 0.69 0.67 0.67 0.70 0.77 0.84 0.88 0.91 0.92 0.94
0.91 0.90 0.90 0.92 0.93 0.90 0.88 0.89 0.88 0.88 0.87 0.85 0.83 0.78 0.74 0.70 0.66 0.63 0.64 0.62 0.59 0.58 0.62 0.63 0.62 0.63 0.61 0.55 0.55 0.56 0.56 0.52 0.51 0.51 0.50 0.49 0.47 0.44 0.41 0.40 0.37 0.35 0.35 0.34 0.31 0.27 0.27 0.27 0.32 0.33 0.35 0.39 0.38 0.38 0.40 0.40 0.40 0.42 0.41 0.43 0.43 0.42 0.42 0.42 0.41 0.43 0.44 0.45 0.47 0.49 0.49 0.52 0.59 0.64 0.71 0.70 0.66 0.65 0.66 0.68 0.71 0.79 0.86 0.90 0.93
0.94 0.93 0.93 0.92 0.93 0.92 0.91 0.91 0.93 0.92 0.91 0.90 0.90 0.89 0.87 0.83 0.78 0.73 0.70 0.68 0.65 0.62 0.64 0.64 0.63 0.65 0.63 0.61 0.60 0.62 0.61 0.59 0.59 0.57 0.54 0.55 0.52 0.48 0.44 0.42 0.43 0.42 0.42 0.41 0.39 0.35 0.34 0.31 0.33 0.33 0.35 0.33 0.32 0.35 0.36 0.37 0.37 0.37 0.37 0.38 0.39 0.39 0.40 0.41 0.42 0.42 0.44 0.47 0.48 0.50 0.52 0.55 0.59 0.61 0.65 0.66 0.65 0.63 0.63 0.62 0.65 0.69 0.74 0.81 0.86
0.98 0.96 0.94 0.96 0.93 0.93 0.93 0.92 0.94 0.95 0.94 0.93 0.91 0.90 0.90 0.90 0.87 0.86 0.84 0.80 0.76 0.71 0.70 0.69 0.66 0.65 0.66 0.64 0.64 0.62 0.62 0.59 0.58 0.56 0.57 0.55 0.53 0.52 0.50 0.48 0.46 0.45 0.46 0.46 0.45 0.44 0.40 0.36 0.35 0.35 0.34 0.33 0.34 0.35 0.37 0.36 0.36 0.37 0.38 0.38 0.39 0.40 0.40 0.42 0.43 0.45 0.44 0.41 0.39 0.41 0.44 0.47 0.51 0.60 0.68 0.68 0.66 0.65 0.63 0.62 0.62 0.62 0.63 0.67 0.74
1.00 1.00 0.93 0.90 0.94 0.97 0.99 0.99 0.98 0.97 0.97 0.96 0.91 0.88 0.87 0.87 0.86 0.85 0.86 0.86 0.84 0.80 0.77 0.75 0.73 0.69 0.66 0.65 0.64 0.63 0.61 0.58 0.57 0.57 0.55 0.52 0.51 0.50 0.50 0.51 0.49 0.47 0.46 0.45 0.45 0.45 0.44 0.43 0.43 0.42 0.44 0.41 0.39 0.39 0.39 0.38 0.35 0.34 0.35 0.37 0.38 0.38 0.36 0.36 0.37 0.37 0.36 0.36 0.39 0.44 0.44 0.45 0.48 0.50 0.52 0.54 0.55 0.55 0.54 0.53 0.52 0.51 0.51 0.55 0.61
1.07 1.03 1.01 0.98 1.00 1.08 1.14 1.13 1.06 1.03 1.01 0.99 0.97 0.94 0.90 0.88 0.86 0.84 0.82 0.80 0.80 0.79 0.79 0.78 0.75 0.72 0.70 0.68 0.66 0.65 0.63 0.61 0.58 0.57 0.56 0.55 0.53 0.50 0.50 0.50 0.52 0.51 0.47 0.44 0.44 0.44 0.44 0.43 0.43 0.44 0.44 0.46 0.45 0.41 0.44 0.45 0.42 0.39 0.36 0.35 0.34 0.38 0.39 0.38 0.37 0.42 0.45 0.45 0.46 0.46 0.48 0.50 0.50 0.50 0.51 0.52 0.52 0.53 0.54 0.54 0.53 0.50 0.47 0.48 0.52
1.14 1.11 1.06 1.02 1.06 1.10 1.06 1.04 1.04 1.06 1.05 1.04 1.04 1.03 1.00 0.94 0.92 0.89 0.86 0.84 0.82 0.81 0.80 0.78 0.77 0.76 0.75 0.75 0.74 0.71 0.67 0.64 0.62 0.58 0.56 0.52 0.49 0.44 0.42 0.40 0.40 0.43 0.45 0.45 0.44 0.43 0.41 0.40 0.40 0.41 0.43 0.43 0.44 0.46 0.46 0.46 0.43 0.42 0.43 0.41 0.38 0.39 0.42 0.46 0.48 0.46 0.48 0.47 0.44 0.43 0.46 0.50 0.52 0.54 0.55 0.55 0.55 0.56 0.57 0.58 0.58 0.56 0.54 0.50 0.48
1.11 1.11 1.09 1.08 1.06 1.01 0.94 0.96 1.00 1.05 1.06 1.04 1.04 1.02 1.00 1.00 0.96 0.93 0.92 0.90 0.87 0.85 0.83 0.80 0.78 0.76 0.76 0.77 0.78 0.76 0.75 0.71 0.67 0.63 0.58 0.54 0.48 0.42 0.39 0.37 0.36 0.37 0.39 0.44 0.44 0.43 0.43 0.43 0.42 0.42 0.40 0.40 0.41 0.41 0.41 0.42 0.42 0.43 0.47 0.46 0.43 0.43 0.42 0.40 0.40 0.42 0.39 0.34 0.32 0.32 0.32 0.34 0.35 0.39 0.46 0.49 0.52 0.55 0.57 0.58 0.58 0.59 0.60 0.59 0.55
1.00 1.05 1.05 1.03 1.01 1.00 0.99 0.99 1.00 1.00 1.01 1.02 1.02 1.00 1.00 0.99 0.97 0.94 0.92 0.91 0.90 0.88 0.86 0.84 0.81 0.80 0.77 0.75 0.74 0.76 0.75 0.73 0.68 0.62 0.57 0.52 0.47 0.42 0.39 0.38 0.37 0.36 0.36 0.38 0.41 0.42 0.41 0.39 0.39 0.40 0.39 0.38 0.38 0.38 0.38 0.40 0.42 0.42 0.40 0.40 0.39 0.41 0.42 0.40 0.41 0.43 0.45 0.44 0.42 0.41 0.44 0.48 0.46 0.42 0.42 0.45 0.54 0.57 0.58 0.62 0.62 0.61 0.58 0.57 0.57
0.82 0.84 0.90 0.89 0.92 0.95 0.95 0.96 0.95 0.96 0.99 0.97 0.95 0.96 0.97 0.96 0.94 0.91 0.87 0.89 0.89 0.85 0.82 0.79 0.77 0.76 0.74 0.72 0.70 0.69 0.67 0.65 0.62 0.58 0.54 0.51 0.48 0.46 0.46 0.46 0.46 0.44 0.40 0.38 0.38 0.40 0.39 0.38 0.38 0.37 0.36 0.35 0.36 0.36 0.35 0.36 0.38 0.41 0.42 0.43 0.43 0.44 0.43 0.41 0.38 0.45 0.54 0.52 0.45 0.41 0.38 0.44 0.47 0.46 0.49 0.51 0.52 0.54 0.60 0.61 0.62 0.64 0.65 0.63 0.62
0.69 0.73 0.75 0.80 0.80 0.81 0.82 0.83 0.84 0.85 0.85 0.85 0.86 0.89 0.91 0.91 0.89 0.90 0.89 0.85 0.82 0.80 0.77 0.75 0.74 0.71 0.70 0.69 0.67 0.66 0.65 0.62 0.58 0.54 0.51 0.48 0.48 0.49 0.51 0.50 0.49 0.49 0.48 0.44 0.40 0.40 0.41 0.40 0.38 0.38 0.37 0.36 0.36 0.37 0.36 0.36 0.37 0.39 0.41 0.42 0.42 0.41 0.40 0.40 0.41 0.41 0.50 0.54 0.47 0.42 0.37 0.41 0.39 0.36 0.38 0.44 0.51 0.56 0.59 0.61 0.62 0.62 0.64 0.66 0.67
0.69 0.67 0.70 0.75 0.76 0.75 0.73 0.71 0.70 0.74 0.72 0.72 0.74 0.78 0.82 0.83 0.85 0.85 0.81 0.78 0.75 0.74 0.73 0.72 0.69 0.67 0.66 0.64 0.63 0.62 0.60 0.57 0.54 0.52 0.50 0.51 0.52 0.51 0.49 0.47 0.46 0.46 0.47 0.48 0.47 0.45 0.45 0.45 0.42 0.40 0.40 0.38 0.37 0.37 0.38 0.37 0.38 0.34 0.35 0.35 0.37 0.39 0.40 0.38 0.38 0.39 0.43 0.49 0.45 0.41 0.39 0.45 0.48 0.43 0.39 0.40 0.44 0.47 0.51 0.56 0.63 0.66 0.64 0.64 0.67
0.62 0.66 0.67 0.66 0.68 0.68 0.67 0.64 0.66 0.63 0.63 0.63 0.67 0.69 0.72 0.76 0.78 0.78 0.76 0.74 0.71 0.69 0.67 0.65 0.64 0.63 0.63 0.61 0.57 0.54 0.53 0.52 0.50 0.49 0.49 0.50 0.50 0.49 0.49 0.49 0.48 0.47 0.45 0.45 0.46 0.47 0.46 0.43 0.42 0.41 0.43 0.45 0.42 0.43 0.45 0.44 0.41 0.38 0.37 0.35 0.37 0.36 0.36 0.36 0.39 0.40 0.43 0.47 0.43 0.41 0.37 0.38 0.42 0.37 0.34 0.36 0.39 0.39 0.43 0.44 0.47 0.51 0.55 0.59 0.63
0.54 0.58 0.61 0.63 0.66 0.66 0.69 0.69 0.65 0.63 0.61 0.61 0.63 0.63 0.64 0.68 0.72 0.71 0.68 0.66 0.65 0.64 0.62 0.61 0.61 0.60 0.58 0.55 0.52 0.50 0.51 0.52 0.54 0.54 0.51 0.49 0.48 0.47 0.46 0.45 0.44 0.43 0.42 0.41 0.41 0.42 0.43 0.45 0.44 0.43 0.43 0.45 0.46 0.47 0.48 0.49 0.46 0.45 0.43 0.40 0.39 0.38 0.38 0.39 0.39 0.40 0.40 0.43 0.42 0.38 0.30 0.34 0.39 0.35 0.33 0.35 0.35 0.36 0.39 0.38 0.39 0.48 0.54 0.56 0.58
0.54 0.56 0.58 0.60 0.61 0.66 0.66 0.63 0.61 0.58 0.60 0.60 0.60 0.60 0.61 0.62 0.64 0.65 0.64 0.62 0.61 0.60 0.61 0.61 0.61 0.60 0.57 0.54 0.52 0.52 0.53 0.53 0.53 0.52 0.50 0.49 0.47 0.46 0.44 0.43 0.42 0.43 0.43 0.44 0.43 0.43 0.42 0.43 0.43 0.45 0.46 0.48 0.49 0.48 0.47 0.46 0.46 0.46 0.46 0.45 0.43 0.41 0.38 0.35 0.32 0.35 0.35 0.39 0.41 0.36 0.31 0.31 0.38 0.37 0.36 0.41 0.41 0.38 0.39 0.37 0.42 0.46 0.49 0.51 0.54
0.53 0.55 0.55 0.59 0.66 0.62 0.60 0.58 0.56 0.57 0.58 0.57 0.57 0.57 0.58 0.58 0.59 0.59 0.59 0.57 0.58 0.58 0.58 0.58 0.58 0.57 0.54 0.53 0.53 0.53 0.53 0.51 0.50 0.47 0.47 0.47 0.45 0.44 0.42 0.41 0.40 0.40 0.39 0.41 0.42 0.42 0.42 0.42 0.41 0.41 0.41 0.41 0.41 0.41 0.41 0.42 0.42 0.42 0.41 0.38 0.36 0.38 0.35 0.31 0.31 0.32 0.32 0.37 0.40 0.41 0.37 0.32 0.36 0.39 0.39 0.42 0.43 0.41 0.40 0.40 0.40 0.41 0.40 0.47 0.57
0.51 0.55 0.58 0.59 0.59 0.59 0.57 0.55 0.56 0.53 0.52 0.52 0.53 0.55 0.57 0.57 0.57 0.57 0.58 0.59 0.56 0.55 0.54 0.55 0.53 0.50 0.50 0.51 0.51 0.49 0.46 0.45 0.46 0.47 0.48 0.48 0.45 0.42 0.38 0.36 0.35 0.34 0.36 0.39 0.40 0.41 0.41 0.41 0.41 0.40 0.40 0.41 0.41 0.41 0.42 0.41 0.41 0.41 0.37 0.32 0.34 0.36 0.33 0.33 0.30 0.32 0.34 0.37 0.38 0.43 0.38 0.35 0.39 0.40 0.39 0.42 0.44 0.45 0.46 0.46 0.47 0.49 0.50 0.53 0.58
0.57 0.56 0.55 0.53 0.53 0.52 0.53 0.53 0.52 0.51 0.51 0.51 0.52 0.53 0.54 0.53 0.57 0.58 0.56 0.54 0.52 0.52 0.50 0.47 0.47 0.48 0.50 0.50 0.49 0.46 0.45 0.45 0.47 0.49 0.49 0.47 0.41 0.38 0.37 0.36 0.35 0.35 0.37 0.39 0.37 0.36 0.37 0.38 0.38 0.39 0.39 0.40 0.40 0.40 0.41 0.41 0.42 0.42 0.41 0.39 0.39 0.36 0.32 0.32 0.33 0.32 0.30 0.32 0.39 0.43 0.35 0.34 0.36 0.36 0.37 0.33 0.30 0.35 0.47 0.50 0.52 0.56 0.60 0.63 0.64
Wind_Speed
12 12 12 12 12 11 12 12 11 11 11 12 12 12 12 12 12 12 12 12 12 13 14 15 16 17 18 18 18 20 21 21 21 21 21 20 20 19 19 20 20 20 21 21 21 21 21 20 20 19 18 17 16 16 15 14 13 12 12 11 10 10 9 8 7 7 6 5 5 4 4 3 3 2 2 3 3 4 4 5 5 6 6 7 8
12 11 12 12 12 12 12 12 12 11 12 12 12 12 13 13 13 13 12 12 12 12 13 14 15 16 17 18 18 19 20 21 22 22 21 20 20 19 19 20 20 20 20 21 21 21 21 21 21 20 19 18 18 17 16 16 15 14 14 13 12 11 11 10 9 8 8 7 6 6 5 4 4 3 3 3 3 3 4 4 4 5 5 6 6
12 12 12 12 12 12 12 12 12 12 12 12 12 13 13 13 13 13 12 12 12 12 12 13 15 16 17 18 19 19 19 21 22 23 23 21 20 19 19 20 20 19 20 21 21 21 21 21 22 21 20 19 19 18 18 17 17 16 16 15 14 13 12 12 11 10 9 9 8 7 7 6 5 5 4 4 4 4 4 4 4 4 4 5 5
12 12 12 11 12 12 12 12 13 12 12 12 13 13 14 14 13 12 12 12 12 12 11 12 13 15 15 17 18 19 19 20 22 23 23 22 21 20 20 20 20 20 19 20 21 21 21 21 22 22 21 20 20 19 19 19 18 17 17 16 16 15 14 13 12 12 11 10 10 9 8 8 7 6 6 5 5 4 4 4 4 4 4 4 4
13 12 12 12 12 12 12 13 13 13 13 13 13 13 13 12 12 12 12 12 12 12 12 11 12 13 14 15 17 18 18 19 21 22 23 23 22 20 20 20 21 20 20 20 20 21 21 21 21 22 22 21 20 20 20 19 19 18 18 18 17 17 16 15 14 13 12 12 11 11 10 9 9 8 7 7 6 6 5 5 5 4 4 4 4
13 13 13 13 13 13 13 13 13 13 13 13 12 12 11 11 12 12 12 12 13 12 12 12 13 13 13 14 16 17 17 17 19 22 22 22 22 21 21 20 21 21 20 20 20 21 21 21 21 21 22 21 21 20 20 20 20 19 19 19 18 18 17 16 16 15 14 13 13 12 11 11 10 10 9 8 8 7 7 6 6 5 5 5 5
13 13 13 13 13 13 13 14 14 13 13 13 12 12 12 12 12 13 13 13 13 13 13 13 13 14 14 14 15 16 17 17 17 20 22 22 22 21 21 22 21 21 21 20 20 21 21 21 21 21 21 21 21 21 20 20 20 19 19 19 19 18 18 17 17 16 16 15 14 14 13 12 12 11 11 10 9 9 8 8 7 7 6 6 6
13 13 13 14 14 14 14 14 14 14 13 12 12 12 13 13 13 13 13 13 13 13 13 13 13 14 14 14 14 15 16 16 17 18 20 22 22 22 22 23 23 22 22 20 20 21 21 21 21 21 21 21 21 21 21 20 20 20 20 20 20 19 19 18 18 17 17 16 15 15 15 14 14 13 12 12 11 11 10 9 9 8 8 7 7
12 12 13 13 14 14 15 15 14 14 13 13 12 13 13 13 13 13 14 14 13 13 13 13 13 13 14 14 14 14 15 16 16 17 18 19 20 21 22 23 24 24 23 22 21 21 21 21 21 21 21 21 21 21 21 21 20 20 20 20 20 20 20 19 19 18 18 17 16 16 16 16 15 15 14 13 13 12 11 11 10 10 9 8 8
12 12 12 13 13 13 14 14 14 14 14 14 13 13 13 13 13 13 14 14 14 13 13 13 13 12 12 14 14 14 15 15 16 17 18 18 19 19 20 22 23 24 24 23 22 21 21 21 21 21 21 21 21 21 20 20 20 20 20 20 20 20 20 20 20 19 19 19 18 17 17 17 16 16 16 15 14 14 13 12 12 11 11 10 9
12 12 12 13 13 13 13 14 14 14 14 14 14 13 13 13 13 14 14 14 15 14 14 14 13 12 12 12 12 13 14 14 15 16 17 18 19 19 19 20 21 23 24 23 23 22 21 21 21 21 21 21 21 21 20 20 20 20 20 20 20 20 20 20 21 20 20 20 19 19 18 18 17 17 17 16 16 15 14 14 13 13 12 11 11
12 12 13 13 13 13 13 14 13 13 13 13 13 14 14 14 14 14 14 14 15 15 15 14 14 13 13 12 12 12 13 13 14 16 17 18 19 20 20 20 21 22 23 24 24 23 22 22 21 21 21 22 22 22 21 21 20 20 20 20 20 20 20 20 20 21 21 20 20 20 19 18 18 17 17 17 17 16 16 15 15 14 14 13 12
12 12 12 13 13 13 13 13 13 13 13 13 13 14 14 14 14 15 15 15 15 15 15 15 14 14 13 13 13 13 13 13 13 15 17 18 19 19 20 21 21 21 22 24 25 24 23 22 22 22 22 22 22 23 22 22 21 21 21 21 21 21 20 20 20 20 21 21 20 20 19 19 18 18 18 18 17 17 17 16 16 15 15 14 14
11 11 12 12 12 12 13 13 13 13 13 13 13 13 14 14 15 15 15 15 15 15 15 15 15 14 13 14 13 13 14 14 14 14 15 17 18 19 20 21 21 21 21 23 25 25 24 23 23 23 23 22 22 23 23 23 22 22 22 22 21 20 20 20 20 20 20 20 20 20 19 19 19 18 18 18 18 17 17 17 17 16 16 16 15
10 10 11 11 11 11 11 11 11 12 12 12 12 12 12 13 13 14 14 14 14 14 14 14 14 14 13 14 13 13 13 13 14 14 15 16 18 19 20 21 21 22 22 21 23 24 24 24 24 24 23 23 23 22 23 23 23 23 23 23 22 21 20 20 20 20 19 19 19 19 19 19 19 18 19 18 18 18 17 17 17 17 17 17 16
9 9 9 10 10 11 11 11 11 11 11 11 11 10 11 11 11 12 12 13 13 13 13 13 13 13 13 13 13 13 13 12 12 13 14 14 15 18 19 20 21 22 22 22 22 22 23 24 24 24 24 24 23 23 23 23 23 23 24 24 23 22 21 20 20 20 20 19 19 20 19 19 19 19 19 19 19 18 18 18 18 18 18 18 17
8 8 8 9 10 10 10 11 11 11 10 10 10 10 10 10 10 10 11 11 11 11 12 12 12 12 13 13 12 12 12 12 12 12 12 12 12 14 16 19 20 21 22 22 22 22 22 22 23 24 24 24 23 23 23 23 23 23 24 24 24 23 23 22 21 20 20 20 20 20 20 20 20 19 19 19 19 19 19 19 18 18 18 18 18
7 7 8 8 9 9 9 10 10 10 10 9 9 10 10 10 9 9 10 11 11 10 11 11 11 11 12 12 12 12 12 12 12 12 11 11 11 11 13 16 18 20 20 21 22 22 22 22 22 23 23 23 23 23 23 23 23 23 23 24 24 24 24 23 23 22 21 21 21 21 20 20 20 20 20 19 20 20 20 20 19 19 19 19 19
7 7 7 8 8 8 8 8 9 9 9 9 9 9 9 10 10 9 9 10 10 10 11 10 10 10 11 11 12 12 13 12 12 12 12 11 11 11 11 13 16 19 20 19 21 22 22 22 22 22 23 24 24 25 25 24 24 24 24 24 24 24 24 24 24 24 23 22 21 21 21 21 20 20 20 20 19 19 20 20 20 19 19 19 19
8 8 7 7 7 7 7 7 7 7 8 8 8 8 8 9 9 9 9 10 10 10 10 10 10 10 10 11 11 11 12 12 12 12 11 11 11 11 11 11 13 17 19 19 19 20 21 22 23 23 23 24 24 25 25 25 25 24 24 25 25 25 25 25 25 24 24 23 23 22 22 22 22 21 21 21 20 20 20 19 20 20 20 19 19
7 7 7 7 7 7 7 7 6 7 7 6 6 6 6 7 7 8 8 9 9 10 10 10 10 10 10 11 11 11 11 12 12 12 12 12 12 11 11 11 11 14 17 18 19 20 20 21 22 23 24 24 25 24 24 25 25 25 25 25 25 25 25 25 25 25 25 25 24 24 23 23 23 23 23 22 22 21 21 20 20 20 20 20 19
7 7 7 7 6 6 6 7 6 6 6 6 6 6 6 6 6 6 7 7 8 9 10 10 10 10 10 10 11 11 11 12 12 12 13 13 12 12 11 12 12 12 14 16 17 19 20 21 22 23 24 25 25 25 25 26 26 26 26 26 26 26 26 26 26 26 26 26 26 26 25 25 25 25 25 24 24 23 23 22 22 21 21 20 20
6 6 6 6 6 6 6 6 6 6 6 6 6 6 6 6 6 6 6 7 7 8 8 9 9 9 10 10 10 10 10 11 11 12 12 12 13 13 13 12 12 12 13 14 15 17 19 21 22 23 24 25 26 25 25 26 27 27 27 27 27 27 27 27 26 26 27 27 27 27 27 27 27 27 27 26 26 25 25 24 23 22 22 22 21
7 6 6 6 6 6 6 6 6 6 6 6 7 7 6 6 7 7 7 7 7 7 8 8 8 8 8 9 9 9 9 10 11 11 11 12 13 13 13 13 13 13 13 14 15 15 17 19 21 23 24 25 26 26 25 26 26 27 27 28 28 29 28 28 28 28 28 28 28 28 28 28 29 29 28 28 28 27 27 26 25 24 24 23 23
7 7 6 6 6 6 6 6 6 6 6 6 6 7 7 7 7 7 7 7 7 7 8 8 8 8 8 8 8 8 9 9 9 10 10 11 11 11 12 12 13 13 14 14 15 15 15 15 17 19 22 24 25 26 25 25 25 26 26 27 28 29 29 29 29 29 30 30 30 30 30 30 30 30 30 29 29 29 28 28 27 27 26 25 25
8 7 7 7 6 6 6 6 6 6 6 6 6 6 7 7 7 7 7 7 7 7 7 8 8 8 8 8 8 8 9 9 9 9 9 10 10 10 11 11 11 12 12 13 14 15 15 15 14 15 17 19 22 23 22 22 22 23 24 25 25 27 28 29 29 29 30 31 31 32 32 31 31 31 31 31 31 30 30 30 30 29 28 28 27
8 8 8 8 7 7 6 6 6 6 6 6 6 6 6 7 6 6 7 7 7 7 7 7 7 7 8 8 8 8 8 9 9 9 9 10 10 10 10 11 11 11 11 12 12 13 13 13 13 14 14 16 17 19 20 21 21 22 23 23 24 25 26 28 29 29 30 30 31 31 32 32 32 32 32 32 32 32 32 32 31 31 30 30 29
10 9 9 8 8 8 8 7 7 7 7 7 7 7 7 7 7 7 7 7 7 7 6 6 6 6 7 7 7 7 7 8 8 8 8 9 9 9 10 10 10 11 11 11 12 12 11 11 12 13 13 13 15 16 18 19 20 21 22 23 23 24 25 26 28 28 29 29 29 30 30 31 31 31 31 31 32 32 32 32 32 32 32 31 30
11 11 10 10 10 9 9 9 8 8 8 8 8 7 7 8 7 7 7 7 7 7 7 7 7 7 7 7 7 7 7 7 7 7 7 8 8 9 9 9 10 10 11 11 11 12 12 12 12 13 12 12 13 14 15 17 18 19 20 21 22 23 24 25 26 27 27 27 27 28 28 29 29 29 30 30 31 32 32 32 32 32 33 32 32
12 12 12 11 11 11 10 10 10 10 9 9 9 9 9 9 8 8 8 8 8 8 8 8 8 7 7 7 7 7 7 7 7 8 8 8 8 9 9 10 10 10 11 11 12 12 13 13 13 14 14 14 14 14 15 16 17 18 19 20 21 23 24 25 26 27 27 28 28 28 29 29 29 30 31 31 32 32 33 32 32 32 33 33 33
13 13 13 13 13 12 12 11 11 11 11 10 10 10 10 10 9 9 9 9 9 9 9 8 9 8 8 8 8 8 8 9 8 9 9 9 9 10 10 10 11 11 12 12 13 13 14 15 15 15 16 16 16 17 17 17 18 19 20 21 22 23 23 24 24 25 27 27 28 29 29 29 30 30 31 31 31 32 32 32 32 33 34 34 34
14 14 14 14 14 14 13 13 13 12 12 12 12 12 11 11 11 11 11 10 10 10 10 10 9 9 9 9 9 9 9 9 9 10 10 10 10 11 11 12 12 13 13 14 15 15 16 16 17 17 17 18 18 19 19 19 20 20 21 21 22 22 22 22 23 24 25 26 27 27 28 29 29 29 30 30 30 30 31 31 32 33 34 34 35
15 15 15 15 15 15 15 15 14 14 14 14 13 13 13 13 13 12 12 12 11 11 11 11 11 11 10 10 10 10 10 10 11 11 11 12 12 12 13 13 14 14 15 15 16 17 17 17 18 19 19 19 20 20 20 21 21 21 22 22 22 22 22 22 23 23 24 25 26 26 27 27 28 28 29 29 29 30 30 31 31 31 32 32 33
16 16 16 16 15 15 15 15 15 15 15 15 15 15 14 14 14 14 13 13 13 13 12 12 12 12 12 11 11 12 12 12 12 12 12 13 13 13 14 15 15 16 17 17 18 18 19 19 19 20 20 20 21 21 21 22 22 22 22 23 23 23 23 23 23 23 24 25 25 26 27 27 27 27 28 28 28 29 29 30 30 30 30 30 31
18 17 18 18 17 17 17 17 16 16 16 16 16 16 16 16 15 15 15 15 15 14 14 14 14 13 13 13 13 13 13 14 14 14 14 14 15 15 16 16 17 17 18 19 19 20 21 21 21 21 21 21 22 22 23 23 23 24 24 24 24 24 24 24 24 24 24 24 25 25 26 27 27 28 28 28 28 28 29 29 30 30 30 30 31
19 19 19 19 20 19 19 18 18 18 18 17 17 17 16 16 16 16 16 16 16 16 16 16 15 15 15 15 15 15 15 15 15 16 16 16 16 17 18 18 19 19 19 20 21 21 22 23 23 23 23 23 24 24 24 24 24 25 25 25 25 25 25 26 26 26 26 26 26 26 27 27 27 28 28 29 29 29 29 29 30 30 31 31 31
22 21 21 21 21 22 22 21 20 20 19 19 18 18 17 17 17 17 16 16 17 17 17 17 17 16 16 17 16 16 16 17 17 17 18 18 18 19 20 20 20 21 21 22 22 23 24 24 25 25 25 25 25 25 25 25 25 25 25 26 26 26 26 27 27 27 27 27 27 27 27 28 28 28 29 30 30 30 31 31 31 31 32 32 32
25 24 23 22 22 22 23 22 22 21 21 21 20 20 20 19 18 17 17 17 17 18 18 18 18 18 18 18 18 18 18 19 19 19 20 20 20 21 21 22 22 22 23 23 24 24 25 26 26 26 26 26 26 26 26 26 26 26 27 27 27 27 27 27 28 28 28 28 28 28 28 28 28 29 30 30 31 31 31 32 32 32 32 33 33
27 26 26 25 23 22 22 22 22 22 22 22 22 22 21 21 20 19 19 19 19 19 19 19 19 19 19 20 20 20 20 21 21 22 22 22 22 23 24 24 24 24 25 25 26 26 27 27 27 28 28 28 28 28 27 27 28 28 28 29 28 28 28 28 27 28 28 28 28 28 29 29 29 30 31 31 31 31 31 32 32 32 32 33 33
25 26 26 26 25 24 23 23 23 23 23 23 22 22 22 22 23 22 22 21 21 20 20 20 20 21 21 21 22 22 22 22 23 23 23 24 25 26 26 26 26 27 27 27 27 28 28 28 29 29 29 29 29 29 29 29 29 29 29 29 30 29 29 29 29 28 29 29 29 30 30 31 31 32 32 32 33 33 33 33 33 33 33 33 33
26 26 26 26 26 26 25 25 25 25 25 24 24 24 23 23 24 24 24 24 23 23 22 22 22 22 23 23 24 24 24 24 24 25 26 26 27 28 28 28 28 29 29 29 29 29 29 29 30 30 30 30 30 30 30 30 31 31 31 31 32 32 32 32 32 32 32 32 32 32 32 32 32 32 33 33 33 34 34 34 34 33 33 34 34
28 28 28 28 27 27 27 27 27 27 27 27 27 27 26 26 26 25 25 25 24 24 23 23 23 24 25 25 26 26 26 26 27 28 29 29 29 29 29 30 30 30 30 31 31 31 31 31 31 31 31 31 32 32 32 32 32 33 33 33 34 34 34 34 34 33 33 33 33 33 33 33 33 33 33 33 34 34 35 35 35 34 34 34 34
29 29 30 29 29 29 29 29 29 29 29 29 29 29 30 29 28 28 27 27 26 25 25 24 25 25 26 26 27 27 28 29 29 30 31 31 31 31 31 32 32 32 32 32 32 32 33 33 33 32 33 33 33 33 33 33 33 33 33 34 34 34 34 34 34 33 32 33 34 35 35 34 34 35 35 35 34 35 35 36 36 36 35 35 35
30 31 31 31 31 31 31 31 31 31 32 31 31 31 31 31 30 30 29 29 28 27 26 26 27 27 27 28 28 29 29 30 31 32 32 33 33 33 33 33 34 34 34 34 35 35 35 35 35 34 35 35 35 35 35 35 35 35 35 35 35 35 35 35 35 34 34 34 35 37 37 36 36 37 37 36 36 36 36 37 37 37 37 37 36
31 32 32 32 32 32 32 32 32 32 32 32 32 32 32 31 31 31 31 30 30 29 28 29 29 29 30 30 31 31 32 33 33 33 33 33 33 33 33 34 35 35 36 37 37 37 37 37 37 37 37 37 37 37 36 37 37 38 37 37 37 37 37 37 37 37 37 36 37 38 39 38 37 38 38 38 38 38 38 38 39 39 39 38 38
31 32 32 32 33 33 33 33 33 32 32 32 31 31 31 31 31 31 32 31 31 31 30 31 31 32 32 33 34 34 35 35 35 35 34 34 34 34 35 35 36 36 37 38 38 39 39 39 40 40 39 39 39 39 38 38 39 39 39 39 39 40 40 41 41 41 40 39 39 39 41 40 39 40 41 40 40 40 40 40 40 40 40 40 40
32 32 33 33 33 33 33 33 32 32 32 31 30 30 31 31 31 31 32 32 32 32 32 32 33 33 34 34 35 35 35 36 35 35 35 35 35 36 36 37 37 37 38 38 38 38 39 39 40 41 41 41 41 41 40 40 40 41 41 42 42 42 43 43 43 43 42 41 41 41 43 42 40 41 42 41 40 41 41 42 42 41 42 42 41
32 33 33 33 33 32 32 32 31 31 31 30 30 30 30 30 30 31 32 32 32 33 33 33 34 34 34 35 35 35 35 35 35 35 35 36 36 37 38 38 38 38 38 38 39 39 39 40 40 41 41 42 42 43 43 43 44 44 44 44 44 44 44 45 45 44 43 42 41 42 43 43 41 41 42 41 40 41 41 42 43 43 43 43 43
33 33 33 32 32 32 31 31 31 30 30 30 30 30 30 30 30 31 31 32 32 33 33 33 34 34 34 34 34 35 35 35 35 35 36 36 37 38 38 39 39 39 39 39 39 40 40 41 41 42 42 43 44 44 45 46 46 46 46 46 46 46 46 46 46 45 44 43 41 41 43 43 42 41 42 41 41 41 41 42 42 43 43 43 43
33 33 32 32 32 31 31 31 31 31 31 31 30 30 30 30 31 31 31 32 32 32 32 33 33 33 33 33 34 34 35 35 35 35 35 36 37 38 39 39 40 40 40 40 40 40 40 41 41 42 42 43 43 44 44 45 45 45 45 46 46 46 47 47 47 47 46 45 44 43 44 45 44 43 43 42 42 42 42 41 41 41 42 42 42
32 32 32 31 31 31 32 31 31 31 31 30 30 30 30 30 31 31 31 31 31 32 32 32 32 32 32 33 33 33 34 34 34 34 35 36 37 38 39 39 40 41 40 40 40 41 41 41 42 42 42 43 43 44 45 45 45 45 45 46 46 46 47 47 47 47 47 46 45 44 45 45 44 44 44 43 42 42 41 41 41 41 42 42 42
Wind_Direction
253 253 252 253 252 251 253 252 248 246 248 251 251 251 252 251 251 252 253 252 250 249 244 240 239 238 237 236 234 234 234 233 232 232 231 231 232 232 231 229 227 226 226 226 227 227 227 227 227 229 230 231 231 232 233 235 236 237 237 239 239 240 244 248 250 252 255 259 264 271 281 295 306 317 331 343 354 3 10 16 20 24 27 29 30
253 252 252 253 251 252 252 249 247 249 252 253 252 253 253 251 251 250 250 251 251 250 246 243 241 239 237 237 237 236 235 234 233 233 232 231 231 232 231 229 227 226 226 227 227 227 228 228 228 229 231 232 232 233 234 235 236 236 236 238 239 239 242 246 248 250 253 256 260 264 270 277 283 292 303 315 326 337 347 357 4 10 15 20 23
251 253 255 255 254 253 250 249 251 254 255 255 256 258 257 255 253 250 249 251 253 252 250 247 244 240 237 239 240 237 237 236 234 233 233 232 231 232 231 229 227 227 227 227 227 228 229 229 229 230 231 232 233 234 235 236 237 236 237 238 239 240 242 244 248 250 251 254 257 260 264 267 271 276 283 294 305 315 324 333 343 351 358 4 10
251 254 256 256 254 254 253 255 258 259 259 260 261 262 263 260 255 251 251 253 254 252 252 251 248 245 241 241 240 238 238 237 234 233 233 232 231 232 232 230 229 228 228 228 228 229 229 230 230 230 231 232 233 234 235 236 238 237 238 239 240 242 242 243 246 249 251 253 256 258 260 262 265 268 272 278 287 296 304 312 320 329 337 344 350
252 255 255 255 255 256 258 259 260 260 261 263 264 263 263 259 249 250 253 254 255 253 253 253 251 249 247 245 241 238 238 236 234 233 233 231 230 233 233 232 231 231 231 230 230 230 230 230 230 231 232 233 234 235 236 237 238 238 239 239 241 242 243 244 246 248 251 253 254 256 258 259 261 264 267 270 275 282 289 295 302 309 316 323 329
255 255 255 256 257 258 259 260 260 260 261 263 264 261 259 253 247 250 255 256 256 255 254 254 253 251 249 250 245 239 238 237 235 233 232 231 230 233 234 234 234 234 233 232 231 231 231 231 231 231 232 233 234 235 236 237 238 239 239 240 241 243 244 246 247 247 250 252 253 255 256 257 258 261 263 266 270 274 279 284 289 295 301 306 311
257 256 256 259 261 261 260 260 259 260 261 261 261 258 255 252 250 252 254 255 256 256 256 256 256 253 249 252 249 241 239 240 237 233 231 231 232 234 235 235 235 235 235 234 232 232 232 232 231 231 232 233 235 236 237 237 238 240 241 241 241 243 245 246 248 248 249 252 253 254 255 256 257 258 260 263 267 269 273 276 280 285 290 294 298
258 258 259 261 262 261 261 261 261 261 261 259 258 257 255 253 253 254 254 255 257 257 257 257 258 254 249 252 251 244 240 240 239 235 233 233 234 236 237 236 235 236 235 234 233 232 231 232 232 232 232 233 235 236 237 238 239 240 241 242 242 244 245 247 248 249 250 252 253 253 254 254 255 257 258 261 264 266 269 271 274 278 281 285 288
259 260 262 263 263 261 261 262 262 262 262 261 259 258 257 255 255 255 254 254 256 258 257 258 259 256 251 253 252 245 241 241 240 238 237 235 235 238 239 237 236 236 235 234 233 232 231 231 232 232 233 234 235 236 238 238 239 239 241 242 243 244 246 247 248 250 252 253 253 253 253 254 254 256 258 259 261 263 265 267 270 273 276 279 282
260 262 264 265 264 263 263 262 262 263 263 261 260 259 257 257 256 255 254 254 256 258 257 257 259 260 257 256 253 246 241 241 241 240 239 237 237 240 241 240 238 237 235 234 233 232 232 232 232 232 233 234 235 237 238 238 239 239 240 242 243 244 246 247 248 250 252 253 254 253 254 254 254 255 256 257 259 261 262 264 267 269 272 275 278
264 265 265 267 267 267 267 264 263 264 263 261 259 258 257 257 257 257 256 255 256 258 258 257 258 259 259 259 254 247 242 241 242 241 240 240 241 243 244 243 240 238 235 234 233 232 233 233 233 233 234 235 236 237 238 238 239 240 241 242 244 245 246 248 248 249 251 253 254 254 254 255 255 255 255 256 258 259 261 262 264 266 268 271 274
266 267 267 266 266 267 267 265 264 263 263 261 259 258 257 257 258 259 258 257 257 258 258 258 258 258 256 256 254 250 247 246 245 244 243 244 246 245 244 244 242 240 237 234 233 234 233 233 234 234 236 236 236 237 238 239 240 240 241 243 245 246 248 249 250 250 251 252 253 254 254 255 255 255 255 256 257 258 259 261 262 263 265 268 270
268 267 268 267 265 266 266 265 265 264 264 263 261 260 260 259 259 259 259 259 259 258 259 258 258 258 257 256 254 252 251 251 250 249 248 247 248 248 245 243 243 242 241 237 234 234 235 234 235 236 237 237 237 237 238 240 241 241 242 243 245 246 248 249 251 252 252 252 253 253 253 254 254 254 256 256 257 258 258 259 260 262 264 266 268
269 266 268 268 266 266 267 266 265 265 266 265 264 263 262 262 259 258 259 260 260 260 259 258 257 258 258 258 257 254 253 253 254 253 252 250 248 248 246 244 242 241 243 241 236 236 237 237 237 238 238 238 237 238 239 240 241 242 243 244 245 246 247 248 250 252 252 252 252 252 252 252 253 254 255 256 257 257 257 258 259 261 263 264 266
272 268 267 269 268 268 268 269 268 267 267 267 267 266 265 263 260 258 259 259 260 260 259 257 257 256 256 257 257 257 258 257 257 256 256 254 249 247 247 245 243 242 242 241 239 239 240 239 238 239 239 239 238 239 240 241 242 242 243 244 245 246 247 248 249 250 251 251 251 250 250 251 252 253 254 255 256 257 257 258 259 260 262 263 264
276 273 270 270 270 271 270 271 271 270 270 269 269 267 266 265 261 259 259 257 257 259 258 256 255 255 255 256 256 258 260 260 259 259 260 258 253 248 247 244 243 242 242 240 239 241 242 241 240 240 240 240 240 240 241 242 242 243 243 244 245 246 248 249 249 249 250 250 250 250 250 250 252 253 255 255 255 256 257 258 259 259 261 262 264
280 277 275 274 272 275 275 272 270 270 272 273 271 269 267 265 262 260 259 257 256 258 259 258 256 256 255 255 255 257 259 260 259 259 261 260 258 254 248 243 240 241 243 241 240 241 243 242 242 243 242 242 241 241 242 243 243 244 244 244 245 246 248 249 250 250 250 251 251 251 251 251 252 254 256 256 256 256 257 258 259 259 260 261 262
281 278 279 278 273 275 277 275 271 269 272 272 271 271 267 263 262 261 260 258 256 257 259 260 261 259 257 255 256 257 259 260 259 258 261 261 261 261 254 245 239 239 242 242 241 243 244 244 244 244 243 243 242 242 244 245 246 245 244 244 245 246 247 248 249 250 250 251 252 252 252 252 252 253 256 257 257 257 257 257 258 259 260 261 262
284 283 282 281 276 274 275 278 276 271 272 271 268 269 266 263 261 259 259 258 257 257 257 260 263 261 260 259 259 259 258 259 258 258 262 262 259 262 260 252 244 240 241 242 243 244 245 246 246 245 244 245 245 245 245 246 248 247 245 245 245 246 247 247 248 249 250 251 252 252 252 252 252 252 254 255 256 257 257 257 257 258 259 260 261
283 284 283 281 278 275 274 277 276 272 272 272 270 270 268 265 262 258 257 257 257 257 257 259 262 261 262 262 261 260 258 258 257 257 260 261 260 262 262 260 252 243 242 244 245 245 244 245 246 246 246 247 247 246 246 247 248 247 246 246 246 246 247 247 247 248 249 251 252 252 252 253 253 252 253 254 255 256 257 257 257 257 259 260 261
280 280 280 279 277 275 273 272 273 272 271 271 272 272 272 269 267 263 260 258 256 257 259 260 260 259 261 263 262 261 259 259 258 259 260 261 263 264 264 264 261 251 245 245 246 246 245 245 248 248 247 247 248 247 247 248 248 248 247 247 247 248 247 248 248 248 248 250 251 253 253 254 254 253 253 254 254 255 257 258 258 258 258 259 260
278 278 276 277 276 274 272 270 271 272 271 271 271 272 272 271 270 268 265 263 260 260 262 262 259 260 260 263 264 262 260 261 260 261 263 263 264 265 264 263 263 260 253 249 249 248 247 248 250 251 248 248 249 249 248 248 248 249 249 248 248 249 248 248 249 249 249 250 251 252 254 255 255 255 255 255 255 255 256 257 258 259 259 260 260
276 277 276 276 276 274 273 272 273 274 273 272 272 271 272 272 271 270 268 267 265 264 266 266 264 263 261 263 267 266 264 265 264 265 266 266 266 266 266 265 263 262 259 256 256 255 254 252 252 252 251 250 250 250 249 249 249 249 249 250 250 249 250 250 250 251 251 252 252 253 254 255 256 256 256 256 255 256 256 256 258 258 258 260 260
273 274 276 276 276 275 274 275 275 275 275 274 273 273 274 275 274 273 272 270 269 268 269 270 269 267 264 266 269 268 267 267 268 269 269 269 269 267 268 268 264 260 259 259 260 260 260 258 255 253 253 252 250 250 251 251 251 250 251 253 252 250 250 251 252 253 253 253 253 254 255 256 257 257 257 256 255 256 256 256 256 257 257 258 259
272 272 273 274 276 277 276 277 276 276 277 275 274 274 274 275 275 275 275 273 272 272 271 273 272 270 268 268 270 270 269 269 271 273 273 271 271 270 270 270 267 263 261 260 259 260 261 262 260 256 254 253 252 251 252 253 253 253 253 254 254 252 251 251 253 254 254 254 254 255 256 256 257 257 257 256 256 255 255 255 255 256 256 256 257
270 270 271 273 274 277 278 278 277 275 275 274 275 275 273 273 274 274 275 274 275 274 274 275 274 272 271 269 270 272 272 271 271 272 273 273 272 272 272 272 270 268 267 266 262 260 261 261 262 261 258 254 252 252 252 252 253 253 254 254 254 253 253 252 253 254 254 255 255 255 256 256 256 256 256 256 256 256 255 255 255 255 256 256 256
265 268 270 272 273 275 276 277 278 277 276 275 274 273 273 273 274 274 275 275 274 274 275 277 277 276 274 272 273 275 274 273 273 272 272 273 273 273 274 274 272 271 270 270 268 265 266 264 260 261 262 258 254 252 252 252 252 252 253 254 254 255 256 256 255 255 255 256 256 257 256 257 256 256 256 256 257 256 256 255 255 255 256 256 256
260 263 265 268 271 272 272 273 274 276 277 277 276 275 275 275 274 274 274 275 275 275 277 279 278 279 278 276 276 277 278 277 277 277 275 274 273 273 275 276 275 274 271 269 269 270 276 277 266 263 265 262 258 255 255 255 254 255 255 255 255 256 257 258 257 257 257 257 257 257 257 256 256 256 256 257 257 257 257 256 256 256 256 256 256
258 261 263 264 266 268 269 269 269 270 272 274 276 276 276 276 276 274 274 275 276 275 276 277 276 278 280 279 277 279 282 280 278 280 280 279 276 275 276 276 274 275 274 272 271 269 274 278 274 272 274 274 269 263 261 261 260 258 258 257 257 258 258 259 259 258 258 258 258 258 257 256 256 256 256 258 258 258 258 257 256 256 256 256 256
257 260 262 262 264 265 266 267 267 268 268 269 271 271 272 273 274 274 273 273 274 273 273 274 276 276 278 278 276 277 281 280 276 278 280 279 279 279 278 276 274 274 273 273 273 271 272 275 274 275 277 278 277 273 269 268 265 262 262 262 261 261 261 261 260 259 258 257 257 258 259 258 258 258 258 258 259 259 258 257 256 256 256 256 256
256 257 260 262 264 264 265 266 267 267 268 268 268 269 269 269 269 270 270 270 271 272 273 273 274 275 276 276 276 276 280 281 279 281 281 279 281 282 280 277 276 275 275 273 272 273 275 275 274 275 275 274 275 274 272 271 269 267 267 266 266 266 265 264 262 260 259 258 258 259 259 259 259 259 259 259 258 258 258 257 257 257 257 257 256
257 257 258 261 263 264 264 265 266 266 267 268 268 268 268 267 268 267 267 268 267 269 271 272 274 275 274 275 276 276 278 280 280 281 282 281 282 283 281 280 279 278 277 274 273 274 276 276 276 276 276 274 275 274 274 274 273 272 271 270 269 269 268 266 265 264 262 261 261 261 260 260 259 259 259 259 259 259 258 258 258 258 258 258 257
258 258 258 259 261 263 263 263 264 264 265 266 266 267 267 267 267 266 265 266 266 266 268 270 272 274 274 275 275 276 278 280 281 280 280 280 282 282 280 280 279 278 277 275 274 274 275 275 275 276 276 276 275 275 274 274 274 274 273 272 271 270 269 269 268 267 265 264 263 262 261 261 259 258 258 259 259 259 258 258 258 258 258 258 257
258 258 259 259 260 261 261 262 262 262 263 264 264 265 265 266 266 265 264 265 266 265 264 267 270 272 274 275 275 276 279 281 282 282 282 282 282 282 280 280 280 279 278 277 276 276 276 277 277 276 276 275 275 274 274 273 273 273 273 272 271 271 271 270 269 268 267 267 266 264 263 262 260 258 258 259 260 259 259 259 259 259 259 259 258
258 259 260 260 260 260 260 260 261 261 262 263 263 263 264 264 264 264 263 263 265 264 262 264 268 269 270 273 274 276 279 280 281 283 283 283 284 284 283 283 282 281 280 279 278 278 278 279 279 278 277 276 275 275 274 273 273 272 271 271 271 271 271 270 270 269 269 268 268 267 266 264 261 260 259 260 261 261 260 260 260 259 259 260 259
258 260 261 260 259 259 259 259 260 261 262 262 263 262 263 264 264 264 263 263 265 265 262 263 266 266 267 271 273 275 277 278 280 281 282 282 284 285 285 285 283 282 281 279 279 278 279 279 280 279 279 278 277 277 276 275 274 273 271 270 270 270 269 269 269 269 269 269 269 268 267 265 263 261 261 261 262 262 262 261 261 260 261 261 261
257 259 261 262 260 259 259 259 259 261 261 262 262 261 262 263 264 264 263 264 266 265 263 264 265 264 266 270 273 274 276 277 279 281 282 283 284 285 285 285 284 283 282 281 280 279 279 279 280 280 280 279 279 278 277 276 275 274 273 271 270 270 269 269 268 268 269 269 269 268 267 265 263 261 261 261 262 262 263 263 262 262 261 261 261
258 258 261 262 261 261 260 259 259 260 261 261 262 262 261 262 263 264 263 264 266 266 265 265 265 264 265 269 272 274 275 277 278 280 281 283 284 285 285 285 284 283 282 282 281 280 279 278 279 279 280 280 279 278 278 277 275 275 274 273 272 271 270 270 269 269 268 269 270 269 268 266 264 263 262 262 263 263 263 263 264 263 262 261 260
257 257 259 260 261 263 263 261 259 261 262 262 263 263 262 262 262 263 264 265 266 266 266 266 266 266 267 270 272 274 275 277 278 279 280 282 284 285 285 284 284 283 282 282 281 280 280 279 278 278 278 278 278 278 278 277 275 275 274 273 272 272 271 271 270 270 269 269 269 268 267 266 265 265 264 264 264 264 264 264 264 264 263 262 261
257 255 257 258 260 263 264 263 262 262 262 263 264 264 265 265 264 262 263 264 265 265 265 266 267 268 269 271 272 274 276 277 278 279 280 281 284 285 284 284 283 283 282 282 281 280 280 279 279 278 278 278 277 277 277 277 275 275 274 273 273 272 271 270 270 270 270 269 269 269 268 267 266 265 265 264 264 264 264 265 265 265 264 263 262
260 259 259 260 261 262 262 263 264 263 262 262 263 264 266 267 265 263 264 265 266 265 264 265 268 268 269 271 273 275 276 277 278 278 280 281 283 284 284 284 283 283 282 281 281 280 280 279 279 279 278 277 277 277 277 276 276 276 275 275 274 273 272 271 270 270 270 270 270 270 269 269 268 266 266 266 265 264 264 264 265 265 265 264 264
263 263 263 263 263 263 263 263 264 263 263 263 263 263 265 266 266 264 264 265 266 265 264 265 268 269 270 272 274 274 275 276 277 278 280 281 282 283 283 283 283 282 282 281 280 280 280 279 279 280 279 278 277 277 277 276 276 276 276 276 275 274 273 272 272 271 271 271 270 270 269 269 269 268 268 267 266 265 265 264 264 264 264 264 264
265 265 265 264 264 264 265 265 265 263 263 264 264 265 266 266 266 264 263 264 264 265 266 266 268 269 271 273 274 274 275 277 278 279 280 281 282 282 282 282 282 282 281 281 280 280 279 279 279 279 279 279 278 277 276 276 276 276 276 276 275 275 274 273 272 272 271 271 271 270 269 268 268 268 268 267 267 266 265 265 264 264 263 263 262
265 266 266 265 265 265 266 266 266 264 264 265 266 267 266 265 265 263 263 263 263 264 266 266 267 269 271 273 274 275 277 278 280 281 282 282 282 282 282 281 281 281 281 281 280 280 279 279 279 279 279 279 278 277 276 276 276 276 276 275 274 274 274 273 273 272 271 271 272 271 270 269 269 268 267 267 267 266 266 265 264 263 263 263 262
265 265 265 265 265 266 266 267 266 266 266 267 267 266 265 263 263 262 263 263 263 264 265 266 267 269 272 273 275 277 278 279 280 281 282 282 282 281 281 281 282 281 281 280 280 279 278 278 277 277 278 278 278 277 276 276 276 276 275 274 273 273 273 272 272 272 272 272 272 272 270 269 269 269 268 267 267 266 266 266 265 263 262 262 262
266 265 265 265 265 266 267 267 266 267 268 267 267 266 264 263 262 262 263 263 264 264 266 267 268 270 272 274 276 277 278 279 280 281 281 282 281 281 281 282 282 282 281 281 280 279 278 277 276 276 277 277 276 276 276 275 275 275 275 274 274 273 273 272 272 272 272 271 272 272 271 270 270 270 269 268 267 267 266 266 265 264 262 261 261
267 266 265 265 266 266 267 267 267 268 268 267 266 265 265 264 263 263 264 264 264 265 266 267 269 272 273 275 276 277 278 279 279 280 281 281 281 281 282 282 283 282 282 281 281 280 279 278 277 276 276 276 276 275 274 273 273 273 274 274 274 273 273 273 272 271 271 270 270 270 270 270 270 270 270 269 269 267 266 265 265 264 263 261 260
267 267 266 266 265 266 266 266 267 267 267 266 265 265 265 265 264 265 265 265 265 266 267 269 271 273 274 275 276 277 278 278 279 280 281 282 282 282 282 282 283 283 282 282 281 280 279 279 278 278 277 276 275 275 274 273 272 273 273 272 272 272 272 272 272 271 271 271 270 270 270 270 270 270 270 270 269 268 267 266 265 264 263 262 261
267 266 266 265 265 266 266 266 265 265 265 265 265 265 266 266 266 265 265 265 265 267 268 270 272 273 275 275 276 277 277 278 278 280 281 282 282 282 282 283 283 283 282 282 282 281 280 279 279 279 278 277 276 276 275 274 273 272 272 271 271 271 271 271 271 271 270 270 269 269 270 270 270 269 270 269 269 268 268 268 267 265 263 262 261
267 267 266 266 266 266 266 265 265 264 265 266 266 266 266 267 266 265 265 266 267 268 269 271 272 274 275 275 276 276 277 278 279 280 282 283 283 283 283 283 283 283 283 283 282 281 281 280 280 279 279 278 277 277 276 275 274 273 272 271 271 270 269 269 269 270 269 269 269 269 269 269 269 269 270 270 269 268 268 268 267 265 263 262 261
267 267 266 266 266 266 266 265 265 265 265 265 266 266 266 266 266 265 266 267 268 269 271 272 273 274 275 276 277 278 278 279 280 281 283 283 284 284 284 284 284 284 283 283 282 282 282 281 281 280 279 279 278 277 276 276 275 274 272 272 271 270 269 269 269 269 269 268 268 268 268 269 269 269 270 270 270 269 268 268 267 265 263 261 260